Weather History for KFLL - September, 2014

Change the Weather History Date:

Saturday, September 6, 2014

  Actual Average Record
Temperature  
Mean Temperature 86 °F 84 °F  
Max Temperature 89 °F 89 °F 95 °F (1921)
Min Temperature 83 °F 78 °F 67 °F (1918)
Degree Days  
Heating Degree Days 0 0  
Month to date heating degree days 0 0  
Since 1 July heating degree days 0 0  
Cooling Degree Days 21 19  
Month to date cooling degree days 121 114  
Year to date cooling degree days 3431 3280  
Growing Degree Days 35 (Base 50)    
Moisture  
Dew Point 75 °F    
Average Humidity 72    
Maximum Humidity 75    
Minimum Humidity 69    
Precipitation  
Precipitation 0.07 in 0.27 in 5.10 in (2010)
Month to date precipitation 0.45 1.74  
Year to date precipitation 44.58 42.81  
Snow  
Snow 0.00 in - - ()
Month to date snowfall 0.0  
Since 1 July snowfall 0.0  
Since 1 September snowfall 0.0  
Snow Depth 0.00 in    
Sea Level Pressure  
Sea Level Pressure 30.01 in    
Wind  
Wind Speed 11 mph (SE)    
Max Wind Speed 22 mph    
Max Gust Speed 22 mph    
Visibility 10 miles    
Events Rain    
T = Trace of Precipitation, MM = Missing Value Source: NWS Daily Summary

Daily Weather History Graph

Daily Weather History Graph

Search for Another Location

Airport or City:

Trip Planner

Search our weather history database for the weather conditions in past years. The results will help you decide how hot, cold, wet, or windy it might be!

Date:

Astronomy

Sep. 06, 2014 Rise Set
Actual Time 7:02 AM EDT 7:34 PM EDT
Civil Twilight 6:39 AM EDT 7:57 PM EDT
Nautical Twilight 6:12 AM EDT 8:25 PM EDT
Astronomical Twilight 5:44 AM EDT 8:52 PM EDT
Moon 5:40 PM EDT (9/6) 4:14 AM EDT (9/6)
Length of Visible Light 13h 18m
Length of Day
12h 31m
Waxing Gibbous, 91% of the Moon is Illuminated
Sep 6
Waxing Gibbous
Sep 8
Full
Sep 15
Last Quarter
Sep 24
New
Oct 1
First Quarter

Hourly Weather History & Observations

Time (EDT) Temp. Heat Index Dew Point Humidity Pressure Visibility Wind Dir Wind Speed Gust Speed Precip Events Conditions
12:53 AM 84.9 °F 93.3 °F 75.0 °F 72% 30.05 in 10.0 mi Calm Calm - N/A   Partly Cloudy
1:53 AM 84.9 °F 93.3 °F 75.0 °F 72% 30.04 in 10.0 mi SE 11.5 mph - N/A   Mostly Cloudy
2:53 AM 84.9 °F 93.3 °F 75.0 °F 72% 30.01 in 10.0 mi SE 8.1 mph - N/A   Scattered Clouds
3:53 AM 84.0 °F 91.9 °F 75.0 °F 74% 30.00 in 10.0 mi ESE 9.2 mph - N/A   Partly Cloudy
4:53 AM 84.9 °F 94.1 °F 75.9 °F 74% 29.99 in 10.0 mi Variable 3.5 mph - N/A   Scattered Clouds
5:53 AM 84.0 °F 91.2 °F 73.9 °F 72% 30.01 in 10.0 mi ESE 11.5 mph - N/A   Scattered Clouds
6:53 AM 84.9 °F 93.3 °F 75.0 °F 72% 30.01 in 9.0 mi SE 13.8 mph - N/A   Mostly Cloudy
7:53 AM 84.0 °F 92.6 °F 75.9 °F 76% 30.03 in 7.0 mi SSE 10.4 mph - 0.04 in   Mostly Cloudy
8:53 AM 86.0 °F 96.9 °F 77.0 °F 74% 30.04 in 10.0 mi East 9.2 mph - N/A   Mostly Cloudy
9:53 AM 86.0 °F 95.1 °F 75.0 °F 70% 30.05 in 10.0 mi SE 13.8 mph - N/A   Mostly Cloudy
10:53 AM 86.0 °F 95.1 °F 75.0 °F 70% 30.06 in 10.0 mi SE 17.3 mph - N/A   Mostly Cloudy
11:53 AM 88.0 °F 100.2 °F 77.0 °F 70% 30.04 in 10.0 mi SE 16.1 mph - 0.03 in   Mostly Cloudy
12:53 PM 86.0 °F 95.1 °F 75.0 °F 70% 30.04 in 10.0 mi SE 17.3 mph - N/A   Mostly Cloudy
1:53 PM 86.0 °F 95.1 °F 75.0 °F 70% 30.04 in 10.0 mi SE 13.8 mph - N/A   Mostly Cloudy
2:53 PM 86.0 °F 95.1 °F 75.0 °F 70% 30.00 in 10.0 mi SE 13.8 mph - N/A   Mostly Cloudy
3:53 PM 84.9 °F 92.1 °F 73.9 °F 69% 29.98 in 10.0 mi ESE 5.8 mph - N/A   Mostly Cloudy
4:53 PM 84.9 °F 94.1 °F 75.9 °F 74% 29.96 in 10.0 mi ESE 5.8 mph - 0.00 in Rain Light Rain
5:06 PM 84.9 °F 94.1 °F 75.9 °F 74% 29.96 in 10.0 mi ESE 5.8 mph - 0.00 in Rain Light Rain
5:12 PM 84.9 °F 93.3 °F 75.0 °F 72% 29.96 in 10.0 mi ESE 5.8 mph - 0.00 in Rain Light Rain
5:53 PM 86.0 °F 95.1 °F 75.0 °F 70% 29.97 in 10.0 mi SE 6.9 mph - 0.00 in Rain Light Rain
6:53 PM 84.9 °F 93.3 °F 75.0 °F 72% 29.96 in 10.0 mi East 9.2 mph - 0.00 in   Mostly Cloudy
7:53 PM 84.0 °F 91.9 °F 75.0 °F 74% 29.99 in 10.0 mi East 5.8 mph - N/A   Overcast
8:53 PM 84.9 °F 91.4 °F 73.0 °F 67% 29.99 in 10.0 mi ESE 4.6 mph - N/A   Overcast
9:53 PM 84.9 °F 92.1 °F 73.9 °F 69% 30.00 in 10.0 mi SE 13.8 mph - N/A   Overcast
10:53 PM 82.4 °F 87.2 °F 71.6 °F 70% 30.00 in 10.0 mi SE 12.7 mph - N/A   Mostly Cloudy
11:53 PM 84.9 °F 91.4 °F 73.0 °F 67% 30.01 in 10.0 mi SE 11.5 mph - N/A   Scattered Clouds